Wind_Speed
12 11 11 11 11 10 10 10 11 10 11 12 13 14 15 16 16 16 16 16 17 17 17 17 16 16 16 15 14 13 13 12 12 11 11 10 10 10 10 9 9 9 9 9
12 12 12 12 11 10 10 10 10 11 11 12 13 14 15 15 16 16 16 16 17 18 18 17 17 17 17 16 15 14 14 13 12 12 12 11 11 11 11 11 11 10 10 11
14 13 13 12 11 12 11 10 11 11 11 13 13 14 14 15 16 16 17 16 17 17 17 17 17 17 17 16 15 15 14 14 14 13 12 12 11 11 11 11 11 12 12 13
15 15 15 13 12 12 12 12 11 11 12 14 14 13 13 13 14 15 16 16 17 16 17 17 17 17 17 17 16 16 15 15 15 14 13 13 13 13 13 13 13 14 14 15
15 16 15 14 13 13 13 12 12 12 13 14 14 13 13 13 14 15 16 17 17 17 17 17 18 17 17 17 17 17 16 16 16 15 15 14 14 14 14 15 15 15 16 17
15 15 15 15 15 14 13 13 13 13 14 14 14 13 13 13 14 15 15 16 17 17 18 18 18 18 18 18 18 17 17 17 16 16 16 16 16 16 16 16 17 17 18 19
16 16 15 15 16 16 14 13 13 13 14 14 15 14 14 13 14 14 15 16 17 18 18 19 19 19 19 18 18 18 18 18 18 18 18 18 18 18 18 18 19 20 21 22
18 17 15 16 16 17 16 16 15 14 14 15 15 15 15 15 15 16 16 17 18 18 19 19 19 19 19 19 19 20 20 19 19 20 20 20 20 21 21 21 22 23 24 25
20 19 18 17 18 19 18 17 17 16 16 16 16 16 17 17 17 18 18 19 19 19 19 20 20 20 20 20 20 20 21 21 22 22 22 22 23 23 23 24 25 26 27 28
22 21 21 20 19 19 19 19 18 18 18 18 18 18 18 18 18 19 19 19 19 20 20 21 21 21 21 22 22 22 23 23 24 24 25 25 25 26 27 28 29 30 30 31
23 23 22 22 21 21 20 20 20 20 20 20 19 19 18 18 18 19 20 20 20 21 21 21 22 22 23 23 24 24 25 25 26 27 27 28 28 29 30 31 32 33 34 34
25 25 24 23 23 23 23 22 22 22 21 21 21 21 20 20 20 20 21 21 22 22 22 23 23 24 24 24 25 26 26 27 28 29 30 31 31 32 33 34 35 36 36 37
26 26 26 25 25 24 25 24 24 24 24 24 23 23 23 23 22 22 23 23 23 23 24 24 25 25 25 26 27 27 29 30 30 31 32 33 34 35 36 36 37 38 38 39
27 26 26 26 26 26 26 26 26 26 26 25 25 25 25 25 25 24 25 25 25 25 26 26 27 27 28 29 30 31 32 32 33 33 34 36 37 38 38 38 39 39 40 40
29 28 28 27 27 27 27 28 28 28 27 27 27 27 27 27 27 27 27 28 28 28 29 30 30 31 31 32 33 34 34 35 36 37 37 38 39 40 40 41 41 41 41 42
30 30 30 29 29 29 29 29 29 29 29 29 29 29 29 29 29 29 29 29 30 31 31 32 33 34 34 35 36 36 37 38 38 39 40 40 41 41 42 43 43 43 43 44
30 31 31 31 30 30 30 31 30 31 31 31 31 31 31 31 31 31 31 32 32 33 33 34 34 35 36 37 38 38 39 39 40 40 41 41 42 43 44 44 44 44 45 46
32 32 32 32 31 31 31 31 31 31 31 32 32 32 32 33 33 34 34 35 35 36 36 36 37 38 38 38 39 39 40 41 42 42 43 43 44 44 44 44 45 45 46 47
32 32 33 33 32 32 32 32 32 31 31 31 32 33 34 34 35 35 35 35 36 36 36 37 38 38 39 40 40 41 41 42 43 43 44 44 44 44 44 45 46 47 48 49
33 32 32 33 33 33 33 33 32 32 33 34 34 34 35 35 36 36 37 37 37 38 38 38 39 40 40 41 42 42 43 43 44 44 45 45 45 45 46 46 47 49 50 50
34 34 33 33 33 33 34 34 33 34 34 35 35 36 37 37 38 38 39 40 40 40 40 41 41 42 42 42 43 43 44 44 44 45 45 46 46 47 48 49 49 50 51 52
35 35 35 34 34 34 35 35 35 36 36 37 37 38 39 39 40 41 41 42 42 42 42 42 43 43 44 44 44 44 45 45 46 47 47 48 48 49 50 50 51 51 52 52
35 35 36 36 36 36 36 36 37 38 38 38 39 40 40 41 41 41 42 42 42 43 43 43 44 44 44 44 45 45 46 47 47 47 48 49 50 51 51 51 51 51 52 52
35 36 37 37 38 38 38 38 39 40 40 40 40 41 41 42 42 42 43 43 43 43 43 44 44 44 44 45 45 46 47 47 47 48 48 49 50 50 50 50 51 51 52 53
35 36 36 37 38 38 38 38 39 40 41 42 42 43 43 43 43 43 43 43 44 44 44 45 45 46 46 46 47 47 48 48 48 48 49 49 50 50 50 51 52 53 54 54
36 36 36 36 37 38 39 39 39 39 40 41 41 42 43 43 44 44 44 44 44 44 45 45 46 46 47 47 47 48 48 48 49 49 49 49 49 50 51 52 53 54 54 54
35 36 36 37 37 38 38 39 40 40 41 41 42 42 43 43 43 43 44 44 45 45 45 45 46 47 47 47 48 48 49 49 49 49 50 50 50 51 52 53 54 53 53 53
Wind_Direction
212 213 209 209 214 215 215 215 218 218 217 213 212 212 213 214 217 218 218 220 221 223 223 222 223 225 228 229 230 234 236 238 244 250 253 257 262 267 270 273 274 277 281 286
216 216 216 214 217 221 222 220 221 219 217 216 216 218 220 219 220 220 220 220 221 221 223 223 225 227 229 229 232 236 237 241 247 250 253 257 262 266 270 273 274 275 279 284
221 224 223 223 224 225 226 225 226 221 218 220 220 224 225 222 221 218 217 219 220 221 222 224 227 229 230 233 237 239 239 243 248 251 254 257 262 267 270 273 276 278 283 285
226 228 229 225 227 227 227 228 231 224 224 228 224 225 226 225 226 221 218 219 221 222 224 226 228 230 232 236 238 239 241 245 248 250 253 257 261 265 270 274 278 281 284 287
228 229 228 228 227 228 229 229 229 228 229 233 231 230 232 233 230 227 225 222 222 225 227 229 232 233 235 238 240 242 243 247 248 250 253 258 263 267 272 277 280 283 286 288
229 230 231 229 227 230 231 229 230 232 234 234 233 233 235 239 237 232 229 227 227 228 230 233 235 237 240 242 243 244 246 248 249 251 256 261 265 269 273 276 280 284 286 289
232 234 232 229 228 229 232 233 234 235 234 234 235 236 236 237 238 235 232 232 232 233 235 237 239 241 243 243 245 247 247 249 251 254 258 263 267 270 274 277 280 284 287 290
234 237 234 231 229 231 234 236 239 239 238 238 238 238 238 237 238 237 237 238 239 238 239 240 241 244 245 247 249 249 250 251 253 256 260 264 268 272 275 278 282 285 288 291
235 238 238 234 232 235 237 238 240 242 242 242 243 242 243 242 240 239 239 240 240 242 243 243 246 247 249 251 251 252 253 254 257 259 262 266 270 274 276 279 283 285 288 291
235 237 239 237 235 237 238 240 242 243 243 243 244 245 246 247 246 244 240 241 243 244 245 247 248 249 252 254 254 255 257 258 261 263 266 268 272 275 278 281 283 285 288 290
237 238 239 239 238 237 239 243 245 246 245 244 245 246 245 246 248 246 243 244 246 246 247 248 249 251 254 255 256 257 258 260 264 266 268 270 273 275 278 281 284 286 288 290
238 238 240 241 241 239 241 243 245 246 247 247 246 247 247 246 245 246 247 247 248 249 250 251 252 255 257 257 258 259 261 263 265 268 270 272 274 277 279 282 284 287 289 290
241 242 244 244 244 243 243 244 246 246 246 247 249 249 249 247 246 246 249 250 250 252 253 254 255 258 260 260 261 263 264 266 268 270 272 274 276 278 280 282 284 286 288 289
243 244 245 246 246 246 245 246 247 247 247 249 251 251 251 250 250 250 251 252 253 254 255 257 259 261 262 263 264 265 267 268 270 272 274 276 278 279 281 283 284 286 287 288
244 245 246 247 247 247 247 246 246 247 248 249 250 252 253 252 252 252 253 254 255 257 258 259 260 263 264 266 267 268 269 271 273 274 276 278 280 281 281 283 284 285 286 288
244 245 246 247 247 247 247 247 247 248 249 250 251 252 252 252 253 253 254 255 257 259 260 261 263 265 267 268 269 271 272 273 275 276 277 279 280 282 283 284 284 285 286 287
245 245 246 247 247 248 248 248 249 250 250 251 252 253 253 254 255 256 256 258 260 261 262 263 265 267 269 270 272 273 273 274 275 277 278 280 282 283 284 284 284 285 286 287
245 246 246 247 247 248 249 248 249 250 251 252 253 254 254 255 256 258 259 260 262 263 264 265 267 269 271 272 273 274 275 275 277 278 280 281 283 283 283 283 284 285 287 288
246 247 247 248 248 248 249 249 251 252 252 254 255 255 256 257 257 259 260 261 263 264 265 266 267 269 271 272 274 275 276 277 278 279 280 281 282 283 283 284 285 287 288 289
247 248 248 249 249 249 249 250 252 253 254 255 256 257 257 258 259 260 261 262 264 265 266 267 269 271 272 273 274 275 276 277 279 280 281 281 282 282 283 285 286 287 288 289
247 248 249 250 251 250 250 251 253 254 256 257 258 258 259 260 260 261 263 265 266 268 268 269 271 272 273 274 275 276 277 278 279 279 280 280 281 283 284 285 286 288 289 290
249 249 250 251 252 253 253 254 255 256 258 260 260 260 261 262 263 263 265 266 268 269 270 271 272 272 273 274 275 276 277 278 279 280 280 281 282 283 284 285 286 288 289 290
251 252 252 254 255 256 256 256 257 258 259 260 262 262 263 264 265 265 266 267 268 269 270 271 271 272 274 275 276 277 278 279 279 280 281 282 283 284 285 286 287 289 290 291
252 253 254 255 256 258 258 259 259 260 260 261 263 264 264 265 266 266 267 268 269 270 271 272 272 273 275 276 277 278 279 280 280 281 282 283 284 285 286 287 288 290 291 292
255 256 256 256 258 259 259 260 261 261 262 263 264 265 265 266 267 268 269 269 270 271 272 273 274 274 276 277 278 279 279 280 280 281 282 283 284 285 286 287 289 290 291 292
256 257 257 258 259 260 261 262 263 264 264 264 265 266 267 268 268 269 269 270 271 272 273 274 275 276 276 277 278 278 279 280 280 282 283 283 284 285 286 288 290 291 292 292
258 258 259 260 261 262 263 264 265 266 266 267 267 268 268 268 268 269 270 271 273 274 275 277 277 277 277 277 277 277 278 279 280 281 282 283 285 286 288 289 290 291 292 293
Height
5802 5803 5805 5806 5808 5809 5811 5813 5815 5816 5817 5818 5819 5820 5822 5824 5827 5829 5831 5834 5836 5838 5840 5842 5845 5847 5849 5850 5852 5853 5855 5856 5857 5857 5858 5858 5858 5858 5858 5858 5858 5857 5857 5857
5800 5801 5803 5804 5806 5807 5809 5810 5812 5814 5815 5816 5817 5818 5820 5822 5824 5826 5828 5830 5833 5835 5837 5839 5841 5844 5846 5847 5848 5850 5851 5852 5853 5854 5854 5854 5855 5855 5855 5854 5854 5854 5854 5853
5798 5799 5801 5803 5804 5805 5807 5808 5810 5811 5814 5813 5815 5816 5817 5819 5821 5823 5825 5827 5829 5831 5834 5836 5838 5840 5842 5843 5845 5846 5847 5848 5849 5850 5850 5850 5851 5851 5851 5851 5850 5850 5850 5849
5795 5798 5799 5803 5802 5803 5805 5806 5807 5809 5810 5811 5813 5814 5815 5817 5818 5820 5822 5824 5826 5828 5830 5832 5834 5836 5838 5839 5841 5842 5843 5844 5845 5846 5846 5847 5847 5847 5847 5847 5846 5846 5846 5845
5792 5794 5796 5798 5799 5800 5802 5804 5805 5806 5807 5809 5810 5811 5813 5814 5816 5817 5819 5821 5823 5825 5827 5829 5831 5832 5834 5835 5836 5838 5839 5840 5841 5841 5842 5842 5843 5843 5842 5842 5842 5841 5841 5840
5788 5790 5793 5796 5796 5797 5800 5801 5802 5803 5804 5806 5807 5809 5811 5811 5812 5814 5815 5817 5819 5821 5823 5825 5827 5828 5829 5831 5832 5833 5834 5835 5836 5837 5837 5838 5838 5838 5838 5837 5837 5836 5836 5834
5784 5786 5788 5791 5792 5794 5797 5799 5799 5799 5801 5802 5804 5806 5807 5808 5809 5810 5812 5814 5815 5817 5819 5821 5822 5824 5825 5826 5827 5828 5829 5830 5831 5832 5832 5832 5832 5832 5832 5832 5831 5831 5830 5828
5780 5782 5786 5786 5788 5790 5792 5793 5794 5795 5797 5798 5800 5801 5803 5804 5805 5806 5808 5810 5811 5813 5814 5816 5818 5819 5820 5821 5822 5823 5824 5825 5825 5826 5826 5827 5827 5827 5826 5826 5825 5824 5823 5821
5776 5779 5780 5781 5783 5785 5787 5788 5790 5791 5793 5794 5796 5797 5798 5800 5801 5802 5803 5805 5806 5808 5809 5811 5812 5813 5815 5816 5816 5817 5818 5819 5819 5820 5820 5820 5820 5820 5819 5819 5818 5817 5815 5813
5770 5772 5774 5776 5778 5780 5782 5783 5785 5787 5788 5790 5791 5792 5794 5795 5796 5797 5798 5800 5801 5803 5804 5805 5806 5807 5808 5809 5810 5811 5812 5812 5813 5813 5813 5813 5813 5812 5812 5811 5810 5808 5807 5805
5764 5766 5768 5770 5772 5774 5776 5778 5780 5781 5783 5784 5786 5787 5789 5790 5791 5792 5793 5794 5796 5797 5798 5799 5800 5801 5802 5802 5803 5804 5805 5805 5805 5806 5806 5805 5805 5804 5803 5802 5801 5799 5797 5795
5757 5760 5762 5764 5765 5768 5770 5772 5774 5775 5777 5778 5780 5781 5783 5784 5785 5786 5787 5788 5789 5790 5791 5792 5793 5794 5795 5796 5796 5797 5797 5797 5797 5797 5797 5796 5796 5795 5794 5792 5791 5789 5787 5785
5750 5752 5755 5757 5759 5761 5763 5765 5767 5768 5770 5771 5773 5774 5776 5777 5778 5779 5781 5782 5783 5784 5785 5785 5786 5787 5788 5788 5788 5789 5789 5789 5789 5788 5788 5787 5786 5785 5783 5782 5780 5778 5776 5773
5742 5745 5747 5749 5752 5754 5756 5758 5759 5761 5762 5764 5766 5767 5768 5770 5771 5772 5773 5774 5775 5776 5777 5778 5779 5779 5779 5780 5780 5780 5779 5779 5779 5778 5777 5776 5775 5774 5772 5771 5769 5767 5764 5762
5734 5737 5739 5741 5744 5746 5748 5750 5751 5753 5754 5756 5758 5759 5761 5762 5763 5764 5765 5766 5767 5768 5769 5769 5770 5770 5770 5770 5770 5770 5769 5769 5768 5768 5766 5765 5764 5762 5760 5759 5757 5754 5752 5750
5725 5727 5730 5733 5735 5737 5739 5741 5743 5744 5746 5747 5749 5751 5752 5753 5754 5756 5757 5758 5758 5759 5760 5760 5760 5761 5760 5760 5760 5759 5758 5758 5757 5756 5755 5753 5752 5750 5748 5746 5744 5742 5739 5737
5715 5718 5721 5723 5726 5728 5730 5732 5733 5735 5737 5738 5740 5741 5743 5744 5745 5746 5747 5748 5749 5749 5750 5750 5750 5750 5749 5749 5748 5748 5747 5746 5745 5744 5742 5741 5739 5737 5735 5733 5730 5728 5725 5723
5706 5708 5711 5714 5716 5718 5720 5722 5724 5725 5727 5729 5730 5732 5733 5734 5736 5736 5737 5737 5738 5738 5738 5739 5739 5738 5738 5737 5736 5736 5735 5734 5732 5731 5730 5728 5726 5724 5721 5719 5716 5714 5711 5708
5696 5698 5701 5703 5705 5708 5710 5712 5713 5715 5717 5719 5720 5721 5723 5724 5725 5725 5726 5726 5727 5727 5727 5727 5727 5726 5726 5725 5724 5723 5722 5721 5719 5718 5716 5714 5712 5710 5707 5705 5702 5700 5697 5694
5686 5688 5691 5693 5695 5697 5700 5701 5703 5705 5706 5708 5709 5710 5711 5712 5713 5714 5714 5715 5715 5715 5715 5714 5714 5714 5713 5712 5711 5710 5709 5707 5706 5704 5702 5700 5698 5696 5693 5691 5688 5685 5682 5678
5675 5678 5680 5682 5685 5686 5689 5690 5692 5694 5695 5696 5698 5699 5700 5700 5701 5702 5702 5702 5702 5702 5702 5701 5701 5700 5699 5698 5697 5696 5695 5693 5692 5690 5688 5686 5683 5681 5678 5676 5673 5670 5666 5663
5664 5667 5669 5671 5673 5675 5677 5679 5680 5682 5683 5685 5685 5686 5687 5688 5688 5689 5689 5689 5689 5689 5688 5688 5687 5687 5686 5685 5683 5682 5681 5679 5677 5675 5673 5670 5668 5666 5663 5660 5657 5654 5650 5647
5653 5655 5658 5660 5662 5664 5665 5667 5668 5670 5671 5672 5673 5673 5674 5675 5675 5675 5676 5676 5675 5675 5674 5674 5673 5672 5671 5670 5669 5667 5666 5664 5662 5660 5657 5655 5652 5650 5647 5644 5641 5638 5634 5630
5642 5644 5646 5648 5649 5651 5653 5654 5656 5657 5658 5658 5659 5660 5660 5661 5661 5661 5661 5661 5661 5661 5660 5659 5658 5657 5656 5655 5654 5652 5650 5648 5646 5644 5642 5639 5637 5634 5631 5628 5625 5621 5618 5614
5630 5632 5634 5635 5637 5639 5640 5641 5642 5643 5644 5645 5646 5646 5647 5647 5647 5647 5647 5647 5647 5646 5645 5645 5644 5643 5641 5640 5639 5637 5635 5633 5631 5629 5626 5624 5621 5618 5615 5612 5608 5605 5601 5597
5618 5620 5621 5623 5624 5626 5627 5628 5629 5630 5631 5631 5632 5632 5632 5632 5633 5633 5632 5632 5632 5631 5630 5629 5628 5627 5626 5625 5623 5621 5619 5617 5615 5613 5610 5608 5605 5602 5599 5595 5591 5588 5583 5579
5607 5608 5609 5611 5612 5613 5614 5615 5616 5617 5617 5618 5618 5618 5618 5618 5618 5618 5618 5617 5616 5616 5615 5614 5613 5611 5610 5608 5607 5605 5603 5601 5599 5596 5594 5591 5588 5585 5582 5578 5574 5570 5566 5562